Weather History for Cross City, FL

Change the Weather History Date:

Sunday, January 6, 2013

  Actual Average Record
Temperature  
Mean Temperature 48 °F 52 °F  
Max Temperature 57 °F 65 °F 80 °F (2007)
Min Temperature 39 °F 40 °F 18 °F (1999)
Degree Days  
Heating Degree Days 17 13  
Month to date heating degree days 58 78  
Since 1 July heating degree days 482 583  
Cooling Degree Days 0 0  
Month to date cooling degree days 2 0  
Year to date cooling degree days 2 0  
Growing Degree Days 5 (Base 50)    
Moisture  
Dew Point 51 °F    
Average Humidity 85    
Maximum Humidity 100    
Minimum Humidity 61    
Precipitation  
Precipitation 0.19 in 0.13 in 0.25 in (2002)
Month to date precipitation 0.42 0.72  
Year to date precipitation 0.42 0.72  
Sea Level Pressure  
Sea Level Pressure 30.18 in    
Wind  
Wind Speed 4 mph (NNE)    
Max Wind Speed 10 mph    
Max Gust Speed 22 mph    
T = Trace of Precipitation, MM = Missing Value Source: NWS Daily Summary

Daily Weather History Graph

Daily Weather History Graph

Search for Another Location

Airport:

Trip Planner

Search our weather history database for the weather conditions in past years. The results will help you decide how hot, cold, wet, or windy it might be!

Date:

Astronomy

Jan. 06, 2013 Rise Set
Actual Time 7:28 AM EST 5:48 PM EST
Civil Twilight 7:02 AM EST 6:14 PM EST
Nautical Twilight 6:32 AM EST 6:44 PM EST
Astronomical Twilight 6:03 AM EST 7:13 PM EST
Moon 1:51 AM EST (1/6) 1:07 PM EST (1/6)
Length of Visible Light 11h 12m
Length of Day
10h 20m
Waning Crescent, 33% of the Moon is Illuminated
Jan 6
Waning Crescent
Jan 11
New
Jan 18
First Quarter
Jan 26
Full
Feb 3
Last Quarter

Hourly Weather History & Observations

Time (EST) Temp. Dew Point Humidity Pressure Visibility Wind Dir Wind Speed Gust Speed Precip Events Conditions
12:53 AM 55.0 °F 44.1 °F 67% 30.22 in - NE 3.5 mph - N/A   Unknown
1:53 AM 54.0 °F 46.0 °F 75% 30.20 in - Calm Calm - N/A   Unknown
2:53 AM 55.0 °F 46.9 °F 74% 30.20 in - NNE 3.5 mph - N/A   Unknown
3:53 AM 55.0 °F 48.0 °F 77% 30.19 in - Calm Calm - N/A   Unknown
4:53 AM 55.0 °F 48.9 °F 80% 30.15 in - Variable 4.6 mph - N/A   Unknown
5:53 AM 55.9 °F 50.0 °F 80% 30.16 in - Calm Calm - N/A   Unknown
6:53 AM 55.9 °F 50.0 °F 80% 30.17 in - NE 3.5 mph - N/A   Unknown
7:53 AM 57.0 °F 50.0 °F 77% 30.18 in - Variable 3.5 mph - N/A   Unknown
8:53 AM 57.0 °F 50.0 °F 77% 30.19 in - NE 5.8 mph - N/A   Unknown
9:53 AM 57.0 °F 50.0 °F 77% 30.21 in - NNE 4.6 mph - N/A   Unknown
10:53 AM 57.0 °F 53.1 °F 87% 30.21 in - NNE 6.9 mph - N/A   Unknown
11:53 AM 55.0 °F 53.1 °F 93% 30.20 in - North 5.8 mph - 0.03 in   Unknown
12:53 PM 55.0 °F 53.1 °F 93% 30.16 in - NNE 6.9 mph - 0.03 in   Unknown
1:53 PM 55.0 °F 53.1 °F 93% 30.14 in - NNE 6.9 mph - 0.01 in   Unknown
2:53 PM 55.0 °F 53.1 °F 93% 30.13 in - NE 5.8 mph - 0.03 in   Unknown
3:53 PM 55.0 °F 53.1 °F 93% 30.14 in - North 4.6 mph - 0.02 in   Unknown
4:53 PM 55.0 °F 54.0 °F 96% 30.13 in - Calm Calm - 0.02 in   Unknown
5:53 PM 55.9 °F 54.0 °F 93% 30.15 in - NNE 4.6 mph - N/A   Unknown
6:53 PM 55.9 °F 54.0 °F 93% 30.16 in - NNE 5.8 mph - 0.01 in   Unknown
7:53 PM 55.9 °F 55.0 °F 97% 30.17 in - NE 4.6 mph - 0.04 in   Unknown
8:53 PM 55.9 °F 54.0 °F 93% 30.19 in - North 10.4 mph - N/A   Unknown
9:53 PM 55.0 °F 54.0 °F 96% 30.19 in - NNE 3.5 mph - N/A   Unknown
10:53 PM 53.1 °F 51.1 °F 93% 30.20 in - North 5.8 mph - N/A   Unknown
11:53 PM 53.1 °F 51.1 °F 93% 30.20 in - Calm Calm - N/A   Unknown